Weather History for Idabel, OK

Change the Weather History Date:

Wednesday, October 17, 2012

  Actual Average (KDEQ) Record (KDEQ)
Temperature  
Mean Temperature 68 °F 63 °F  
Max Temperature 80 °F 76 °F 92 °F (1953)
Min Temperature 55 °F 50 °F 28 °F (1952)
Degree Days  
Heating Degree Days 0 4  
Month to date heating degree days 45  
Since 1 July heating degree days 54  
Cooling Degree Days 2 2  
Month to date cooling degree days 48  
Year to date cooling degree days 1913  
Growing Degree Days 18 (Base 50)    
Moisture  
Dew Point 58 °F    
Average Humidity 73    
Maximum Humidity 94    
Minimum Humidity 37    
Precipitation  
Precipitation 0.00 in 0.16 in 3.92 in (1983)
Month to date precipitation 2.50  
Year to date precipitation 37.70  
Snow  
Snow 0.00 in - - ()
Month to date snowfall  
Since 1 July snowfall  
Since 1 September snowfall  
Snow Depth -    
Sea Level Pressure  
Sea Level Pressure 29.64 in    
Wind  
Wind Speed 9 mph (SSW)    
Max Wind Speed 21 mph    
Max Gust Speed 29 mph    
Visibility 10 miles    
Events      
T = Trace of Precipitation, MM = Missing Value Source: NWS Daily Summary

Daily Weather History Graph

Daily Weather History Graph

Search for Another Location

Airport:

Trip Planner

Search our weather history database for the weather conditions in past years. The results will help you decide how hot, cold, wet, or windy it might be!

Date:

Astronomy

Oct. 17, 2012 Rise Set
Actual Time 7:26 AM CDT 6:42 PM CDT
Civil Twilight 7:01 AM CDT 7:07 PM CDT
Nautical Twilight 6:32 AM CDT 7:36 PM CDT
Astronomical Twilight 6:03 AM CDT 8:05 PM CDT
Moon 9:53 AM CDT (10/17) 8:27 PM CDT (10/17)
Length of Visible Light 12h 06m
Length of Day
11h 15m
Waxing Crescent, 7% of the Moon is Illuminated
Oct 17
Waxing Crescent
Oct 21
First Quarter
Oct 29
Full
Nov 6
Last Quarter
Nov 13
New

Hourly Weather History & Observations

Time (CDT) Temp. Heat Index Dew Point Humidity Pressure Visibility Wind Dir Wind Speed Gust Speed Precip Events Conditions
12:15 AM 57.2 °F - 53.6 °F 88% 29.74 in 10.0 mi East 4.6 mph - N/A   Clear
12:35 AM 55.4 °F - 53.6 °F 94% 29.73 in 10.0 mi East 5.8 mph - N/A   Scattered Clouds
12:55 AM 55.4 °F - 53.6 °F 94% 29.73 in 10.0 mi East 4.6 mph - N/A   Clear
1:15 AM 55.4 °F - 53.6 °F 94% 29.74 in 10.0 mi East 4.6 mph - N/A   Scattered Clouds
1:35 AM 55.4 °F - 53.6 °F 94% 29.73 in 10.0 mi ESE 6.9 mph - N/A   Scattered Clouds
1:55 AM 57.2 °F - 53.6 °F 88% 29.72 in 10.0 mi ESE 6.9 mph - N/A   Scattered Clouds
2:15 AM 57.2 °F - 53.6 °F 88% 29.72 in 10.0 mi ESE 6.9 mph - N/A   Scattered Clouds
2:35 AM 57.2 °F - 55.4 °F 94% 29.72 in 10.0 mi ESE 6.9 mph - N/A   Mostly Cloudy
2:55 AM 57.2 °F - 55.4 °F 94% 29.72 in 10.0 mi ESE 6.9 mph - N/A   Mostly Cloudy
3:15 AM 57.2 °F - 55.4 °F 94% 29.71 in 10.0 mi SE 8.1 mph - N/A   Scattered Clouds
3:55 AM 59.0 °F - 55.4 °F 88% 29.70 in 7.0 mi SE 6.9 mph - N/A   Overcast
4:15 AM 59.0 °F - 55.4 °F 88% 29.68 in 10.0 mi SSE 12.7 mph - N/A   Overcast
4:35 AM 59.0 °F - 57.2 °F 94% 29.67 in 10.0 mi South 10.4 mph - N/A   Overcast
4:55 AM 59.0 °F - 57.2 °F 94% 29.67 in 10.0 mi South 10.4 mph - N/A   Overcast
5:15 AM 59.0 °F - 57.2 °F 94% 29.68 in 10.0 mi South 9.2 mph - N/A   Overcast
5:35 AM 60.8 °F - 57.2 °F 88% 29.67 in 10.0 mi South 9.2 mph - N/A   Overcast
5:55 AM 60.8 °F - 59.0 °F 94% 29.67 in 10.0 mi South 8.1 mph - N/A   Overcast
6:15 AM 60.8 °F - 59.0 °F 94% 29.66 in 10.0 mi South 9.2 mph - N/A   Overcast
6:35 AM 60.8 °F - 59.0 °F 94% 29.66 in 10.0 mi South 10.4 mph - N/A   Overcast
6:55 AM 60.8 °F - 59.0 °F 94% 29.66 in 10.0 mi South 10.4 mph - N/A   Overcast
7:15 AM 60.8 °F - 59.0 °F 94% 29.65 in 10.0 mi South 9.2 mph - N/A   Overcast
7:35 AM 60.8 °F - 59.0 °F 94% 29.65 in 10.0 mi South 10.4 mph - N/A   Overcast
7:55 AM 62.6 °F - 59.0 °F 88% 29.64 in 10.0 mi South 10.4 mph - N/A   Overcast
8:15 AM 62.6 °F - 59.0 °F 88% 29.64 in 10.0 mi South 11.5 mph - N/A   Overcast
8:35 AM 62.6 °F - 59.0 °F 88% 29.63 in 10.0 mi SSE 10.4 mph 17.3 mph N/A   Overcast
8:55 AM 62.6 °F - 59.0 °F 88% 29.62 in 10.0 mi South 12.7 mph - N/A   Overcast
9:15 AM 62.6 °F - 60.8 °F 94% 29.62 in 10.0 mi South 13.8 mph - N/A   Overcast
9:35 AM 62.6 °F - 60.8 °F 94% 29.62 in 10.0 mi South 15.0 mph - N/A   Overcast
9:55 AM 64.4 °F - 60.8 °F 88% 29.62 in 10.0 mi South 10.4 mph - N/A   Overcast
10:15 AM 64.4 °F - 60.8 °F 88% 29.61 in 10.0 mi South 13.8 mph 19.6 mph N/A   Overcast
10:35 AM 64.4 °F - 60.8 °F 88% 29.61 in 10.0 mi SSW 12.7 mph 17.3 mph N/A   Overcast
10:55 AM 66.2 °F - 60.8 °F 83% 29.61 in 10.0 mi SSW 12.7 mph 17.3 mph N/A   Overcast
11:15 AM 68.0 °F - 62.6 °F 83% 29.61 in 10.0 mi SSW 11.5 mph 17.3 mph N/A   Overcast
11:35 AM 68.0 °F - 62.6 °F 83% 29.59 in 10.0 mi South 19.6 mph 23.0 mph N/A   Overcast
11:55 AM 69.8 °F - 62.6 °F 78% 29.59 in 10.0 mi SSW 17.3 mph 20.7 mph N/A   Overcast
12:15 PM 69.8 °F - 62.6 °F 78% 29.59 in 10.0 mi SSW 13.8 mph 21.9 mph N/A   Overcast
12:35 PM 71.6 °F - 64.4 °F 78% 29.58 in 10.0 mi SSW 15.0 mph 20.7 mph N/A   Mostly Cloudy
12:55 PM 75.2 °F - 62.6 °F 65% 29.58 in 10.0 mi SSW 17.3 mph 27.6 mph N/A   Mostly Cloudy
1:15 PM 77.0 °F - 62.6 °F 61% 29.56 in 10.0 mi South 20.7 mph 25.3 mph N/A   Mostly Cloudy
1:35 PM 77.0 °F - 62.6 °F 61% 29.56 in 10.0 mi SW 19.6 mph 28.8 mph N/A   Mostly Cloudy
1:55 PM 77.0 °F - 62.6 °F 61% 29.55 in 10.0 mi SSW 17.3 mph 24.2 mph N/A   Mostly Cloudy
2:15 PM 78.8 °F - 62.6 °F 57% 29.54 in 10.0 mi SSW 15.0 mph 21.9 mph N/A   Mostly Cloudy
2:35 PM 78.8 °F - 62.6 °F 57% 29.53 in 10.0 mi SW 15.0 mph - N/A   Scattered Clouds
2:55 PM 78.8 °F - 62.6 °F 57% 29.54 in 10.0 mi SW 16.1 mph 24.2 mph N/A   Scattered Clouds
3:15 PM 78.8 °F - 60.8 °F 54% 29.53 in 10.0 mi SW 15.0 mph 23.0 mph N/A   Scattered Clouds
3:35 PM 78.8 °F - 60.8 °F 54% 29.54 in 10.0 mi SW 15.0 mph 21.9 mph N/A   Scattered Clouds
3:55 PM 78.8 °F - 62.6 °F 57% 29.53 in 10.0 mi SSW 12.7 mph - N/A   Scattered Clouds
4:15 PM 80.6 °F 81.8 °F 62.6 °F 54% 29.53 in 10.0 mi SSW 11.5 mph 20.7 mph N/A   Scattered Clouds
4:35 PM 80.6 °F 81.8 °F 62.6 °F 54% 29.55 in 10.0 mi SW 12.7 mph - N/A   Scattered Clouds
4:55 PM 80.6 °F 82.3 °F 64.4 °F 58% 29.55 in 10.0 mi SW 9.2 mph - N/A   Scattered Clouds
5:15 PM 78.8 °F - 64.4 °F 61% 29.55 in 10.0 mi SW 10.4 mph - N/A   Scattered Clouds
5:35 PM 80.6 °F 82.3 °F 64.4 °F 58% 29.55 in 10.0 mi SW 8.1 mph - N/A   Clear
5:55 PM 80.6 °F 82.3 °F 64.4 °F 58% 29.56 in 10.0 mi West 8.1 mph - N/A   Clear
6:15 PM 80.6 °F - 51.8 °F 37% 29.58 in 10.0 mi WNW 12.7 mph 17.3 mph N/A   Clear
6:35 PM 78.8 °F - 51.8 °F 39% 29.59 in 10.0 mi WNW 9.2 mph 18.4 mph N/A   Clear
6:55 PM 77.0 °F - 53.6 °F 44% 29.61 in 10.0 mi NW 11.5 mph - N/A   Clear
7:15 PM 75.2 °F - 53.6 °F 47% 29.62 in 10.0 mi NW 8.1 mph - N/A   Clear
7:35 PM 73.4 °F - 53.6 °F 50% 29.63 in 10.0 mi NW 6.9 mph - N/A   Clear
7:55 PM 71.6 °F - 53.6 °F 53% 29.65 in 10.0 mi WNW 11.5 mph - N/A   Clear
8:15 PM 71.6 °F - 53.6 °F 53% 29.67 in 10.0 mi NW 11.5 mph 18.4 mph N/A   Clear
8:35 PM 71.6 °F - 53.6 °F 53% 29.68 in 10.0 mi NNW 10.4 mph - N/A   Clear
8:55 PM 71.6 °F - 53.6 °F 53% 29.70 in 10.0 mi NNW 19.6 mph 26.5 mph N/A   Clear
9:15 PM 71.6 °F - 51.8 °F 50% 29.71 in 10.0 mi NNW 15.0 mph 21.9 mph N/A   Clear
9:35 PM 69.8 °F - 51.8 °F 53% 29.72 in 10.0 mi NNW 11.5 mph 17.3 mph N/A   Clear
9:55 PM 69.8 °F - 50.0 °F 49% 29.74 in 10.0 mi NNW 9.2 mph - N/A   Clear
10:15 PM 68.0 °F - 51.8 °F 56% 29.75 in 10.0 mi NW 8.1 mph - N/A   Clear
10:35 PM 64.4 °F - 50.0 °F 59% 29.75 in 10.0 mi WNW 4.6 mph - N/A   Clear
10:55 PM 62.6 °F - 50.0 °F 63% 29.75 in 10.0 mi WNW 3.5 mph - N/A   Clear
11:15 PM 62.6 °F - 50.0 °F 63% 29.75 in 10.0 mi Calm Calm - N/A   Clear
11:35 PM 60.8 °F - 50.0 °F 68% 29.74 in 10.0 mi Calm Calm - N/A   Clear
11:55 PM 59.0 °F - 50.0 °F 72% 29.77 in 10.0 mi WSW 4.6 mph - N/A   Clear